Location: Chamerau
(49.1969°N, 12.7525°E)
Time: 06:24:30
(UTC+00:00)

Cosmos 1626 - Pass Details

Date: 18 September 2020
Orbit: 490 x 495 km, 82.5° (Epoch: 22 October)

Event Time Altitude Azimuth Distance (km) Brightness Sun altitude
Rises 20:13:03 0° 344° (NNW) 2,590 6.6 -27.6°
Reaches altitude 10° 20:15:14 10° 338° (NNW) 1,701 5.6 -27.9°
Enters shadow 20:17:30 30° 314° (NW) 904 3.9 -28.1°
